sat.trackr.live / text

‹ back to catalog

STARLINK-36379

NORAD 68769 · 2026-086D

PAYLOAD ACTIVE UNKNOWN

§ Identity

Operator
Country
US
Launch date
2026-04-19
Launch site
AFWTR
Launch vehicle
Mass (kg)
RCS (m²)

Purposes: comms

External: N2YO · Heavens-Above · Gunter

§ Orbital elements

Epoch: 2026-09-20T01:25:08.741280Z

Period
93.91 min
Inclination
97.2846°
Eccentricity
0.0001339
Mean motion
15.33454899 rev/d
Perigee alt
464.6 km
Apogee alt
466.4 km
Semi-major
6,843.7 km
B*
4.6301e-4
RAAN
298.4329°
Arg perigee
110.2798°
Mean anomaly
249.8589°
Rev number
2,361

§ Raw data

STARLINK-363791 68769U 26086D   26263.05912895  .00014907  00000+0  46301-3 0  99932 68769  97.2846 298.4329 0001339 110.2798 249.8589 15.33454899 23613

JSON: /api/v1/satellites/68769 · /tle

For live sub-satellite position, see the globe view (requires WebGL).

§ Visibility from observer

Set your observer location to see the next 7 days of passes ≥ 10°. The values pass through the URL so the page stays shareable.

No JS? Fill the form by hand. The geolocation button needs JavaScript.